Home > Weather > Gotha > Past weeks

Flag for Germany Past Weather in Gotha, Thuringia, Germany — Yesterday and Last 2 Weeks

Now
66 °F

Passing clouds.


Feels Like: 66 °F
Forecast: 49 / 74 °F
Wind: 3 mph from South

Location: Erfurt-Bindersleben

Current Time: Aug 29, 2016 at 4:19:15 AM

Latest Report: Aug 29, 2016 at 3:50 AM


Visibility: N/A

Pressure: 30.01 "Hg

Humidity: 88%

Dew Point: 63 °F

Location of GothaLocation

Past Weather in Gotha — Graph

°F

Gotha Temperature Yesterday

Maximum temperature yesterday: 91 °F (at 11:50 AM)
Minimum temperature yesterday: 64 °F (at 8:20 PM)
Average temperature yesterday: 78 °F

High & Low Weather Summary for the Past Weeks

 TemperatureHumidityPressure
High93 °F (Aug 26, 4:20 PM)100% (Aug 14, 5:20 AM)30.36 "Hg (Aug 14, 5:20 AM)
Low43 °F (Aug 18, 6:20 AM)17% (Aug 25, 2:20 PM)29.80 "Hg (Aug 18, 4:50 PM)
Average68 °F62%30.09 "Hg
* Reported Aug 14 3:20 AM — Aug 29 3:20 AM, Gotha, Weather by CustomWeather, © 2016

Note: Actual official high and low records may vary slightly from our data, if they occured in-between our weather recording intervals... More about our weather records

Advertising

Gotha Weather History for the Previous 24 Hours

Scroll right to see more
 ConditionsComfort  
Time TempWeatherWind HumidityBarometerVisibility
3:20 AM
Mon, Aug 29
66 °FPassing clouds.3 mph88%30.01 "HgN/A
2:50 AM66 °FPassing clouds.5 mph88%30.01 "HgN/A
2:20 AM64 °FPassing clouds.7 mph94%30.01 "HgN/A
1:50 AM66 °FPassing clouds.7 mph88%30.01 "HgN/A
1:20 AM66 °FPassing clouds.8 mph88%30.01 "HgN/A
12:50 AM64 °FPassing clouds.7 mph94%30.01 "HgN/A
12:20 AM64 °FClear.6 mph94%30.01 "Hg10 mi
11:50 PM
Sun, Aug 28
64 °FClear.8 mph94%29.98 "Hg10 mi
11:20 PM66 °FClear.9 mph88%29.98 "Hg10 mi
10:50 PM66 °FClear.9 mph88%29.98 "Hg10 mi
10:20 PM64 °FClear.10 mph94%29.98 "Hg10 mi
9:50 PM64 °FClear.10 mph94%29.98 "Hg10 mi
9:20 PM66 °FPassing clouds.9 mph88%29.98 "HgN/A
8:50 PM68 °FPartly sunny.12 mph83%29.98 "HgN/A
8:20 PM64 °FThunderstorms. Partly sunny.15 mph94%29.98 "HgN/A
7:50 PM75 °FThunderstorms. Partly sunny.25 mph57%29.98 "Hg5 mi
7:20 PM81 °FBroken clouds.9 mph39%29.92 "HgN/A
6:50 PM86 °FBroken clouds.9 mph35%29.92 "HgN/A
6:20 PM86 °FPartly sunny.14 mph33%29.92 "HgN/A
5:50 PM90 °FScattered clouds.15 mph27%29.89 "HgN/A
5:20 PM90 °FPassing clouds.15 mph31%29.89 "HgN/A
4:50 PM91 °FPassing clouds.14 mph34%29.92 "HgN/A
4:20 PM91 °FPassing clouds.15 mph30%29.92 "HgN/A
3:50 PM91 °FPassing clouds.14 mph30%29.92 "HgN/A
3:20 PM91 °FSunny.13 mph32%29.92 "Hg10 mi
2:50 PM91 °FPassing clouds.10 mph34%29.95 "HgN/A
2:20 PM88 °FPassing clouds.10 mph38%29.95 "HgN/A
1:50 PM88 °FPassing clouds.12 mph38%29.95 "HgN/A
1:20 PM86 °FSunny.18 mph40%29.98 "Hg10 mi
12:50 PM88 °FSunny.17 mph38%29.98 "Hg10 mi
12:20 PM91 °FPassing clouds.12 mph34%29.95 "HgN/A
11:50 AM91 °FPassing clouds.7 mph30%29.98 "HgN/A
11:20 AM90 °FSunny.6 mph31%29.98 "Hg10 mi
10:50 AM86 °FPassing clouds.7 mph35%29.98 "HgN/A
10:20 AM84 °FPassing clouds.7 mph40%29.98 "HgN/A
9:50 AM82 °FPassing clouds.6 mph40%29.98 "HgN/A
9:20 AM79 °FSunny.7 mph45%29.98 "Hg10 mi
8:50 AM77 °FSunny.8 mph47%29.98 "Hg10 mi
8:20 AM75 °FSunny.7 mph50%29.98 "Hg10 mi
7:50 AM72 °FPassing clouds.5 mph53%29.98 "HgN/A
7:20 AM72 °FPassing clouds.3 mph53%29.98 "HgN/A
6:50 AM70 °FClear.9 mph57%29.98 "Hg10 mi
6:20 AM70 °FClear.8 mph57%29.98 "Hg10 mi
5:50 AM68 °FClear.8 mph60%29.98 "Hg10 mi
5:20 AM70 °FClear.9 mph57%29.98 "Hg10 mi
4:50 AM70 °FClear.9 mph57%29.98 "Hg10 mi
4:20 AM70 °FClear.10 mph57%30.01 "Hg10 mi
Weather by CustomWeather, © 2016

See weather overviewHow to use our weather pages